Regional Weather Roundup
Issued by NWS

Home | Current Version | Previous Version | Text Only | Print | Product List | Glossary On
Versions: 1 2 3 4 5 6 7 8 9 10 11 12 13 14 15 16 17 18 19 20 21 22 23 24 25 26 27 28 29 30 31 32 33 34 35 36 37 38 39 40 41 42 43 44 45 46 47 48 49 50
000
ASUS45 KSLC 311710
RWRUT

UTAH REGIONAL WEATHER ROUNDUP
NATIONAL WEATHER SERVICE SALT LAKE CITY UT
1100 AM MDT TUE MAY 31 2016

UTZ001>011-023>025-311800-

NORTHERN UTAH

CITY           SKY/WX    TMP DP  RH WIND       PRES   REMARKS
BRIGHAM CITY     N/A     65  37  35 CALM      30.10F
HILL AFB       SUNNY     64  39  40 VRB7      30.11F
LOGAN          SUNNY     59  39  47 CALM      30.12F
OGDEN          SUNNY     66  35  31 CALM      30.09F
PROVO AIRPORT  MOSUNNY   64  37  36 VRB5      30.11F
SALT LAKE CITY MOSUNNY   69  32  25 NW10      30.09F
VERNAL         SUNNY     67  34  29 S7        30.09F
WENDOVER       SUNNY     70  27  19 NW13      30.11F
HEBER CITY     SUNNY     63  39  42 CALM      30.11F
WEST JORDAN    SUNNY     66  37  34 NW5       30.11F

$$

UTZ012>022-026-027-311800-

SOUTHERN/CENTRAL UTAH

CITY           SKY/WX    TMP DP  RH WIND       PRES   REMARKS
BLANDING       SUNNY     73  33  22 SE5       30.12S
BRYCE CANYON   SUNNY     65  24  21 NE12      30.19F
CEDAR CITY     SUNNY     72  30  21 NE10      30.09F
DELTA          SUNNY     68  30  24 N5        30.10F
HANKSVILLE     SUNNY     75  27  16 CALM      30.03S
MILFORD        SUNNY     72  28  19 N16G23    30.10S
MOAB/CYNLANDS  SUNNY     77  31  18 NE7       29.99F
PRICE          SUNNY     71  22  15 N7        30.08F
ST GEORGE      SUNNY     81  34  18 W5        29.95F

$$

REGIONAL REPORTS     COLORADO/ARIZONA

CITY           SKY/WX    TMP DP  RH WIND       PRES   REMARKS
CRAIG, CO      MOSUNNY   62  41  46 MISG      30.14F
GRAND JUNCTION SUNNY     71  34  25 SE8       30.02F
RIFLE          SUNNY     67  35  30 NW3       30.07F
MONTROSE       SUNNY     67  34  29 N8        30.08F
CORTEZ         SUNNY     74  30  19 SW10      30.05F
PAGE, AZ       SUNNY     76  33  21 VRB5      29.99F
GRAND CANYON   SUNNY     73  28  18 NE8       30.12F
KINGMAN        SUNNY     85  28  12 MISG      29.93F
FLAGSTAFF      SUNNY     66  24  20 VRB7      30.13F

$$

REGIONAL REPORTS    NEVADA/IDAHO/WYOMING

CITY           SKY/WX    TMP DP  RH WIND       PRES   REMARKS
LAS VEGAS, NV  PTSUNNY   89  33  13 N7        29.85F
ELY            SUNNY     62  35  36 N15       30.18F
ELKO           SUNNY     67  33  28 S5        30.15F
POCATELLO, ID  SUNNY     64  32  30 NE15G22   30.15F
BURLEY         SUNNY     63  35  35 CALM      30.13F
EVANSTON, WY   SUNNY     59  40  49 N7        30.18F
ROCK SPRINGS   SUNNY     56  35  45 CALM      30.18S
KEMMERER         N/A     59  28  31 SW6       30.20S

$$



USA.gov is the U.S. government's official web portal to all federal, state and local government web resources and services.